McClellan AFB, CA

3:34 PM PST on February 20, 2017 (GMT -0800)
McClellan

Weather History for KMCC - March, 2013

Change the Weather History Date:

Saturday, March 2, 2013

  Actual Average (KMHR) Record (KMHR)
Temperature  
Mean Temperature 58 °F -  
Max Temperature 69 °F 58 °F 71 °F (2016)
Min Temperature 46 °F 37 °F 32 °F (2003)
Degree Days  
Heating Degree Days 8    
Growing Degree Days 8 (Base 50)    
Moisture  
Dew Point 47 °F    
Average Humidity 67    
Maximum Humidity 93    
Minimum Humidity 40    
Precipitation  
Precipitation 0.00 in - - ()
Sea Level Pressure  
Sea Level Pressure 30.17 in    
Wind  
Wind Speed 2 mph (NE)    
Max Wind Speed 9 mph    
Max Gust Speed -    
Visibility 10 miles    
Events Rain    
Averages and records for this station are not official NWS values.
T = Trace of Precipitation, MM = Missing Value Source: NWS Daily Summary

Daily Weather History Graph

Daily Weather History Graph

Search for Another Location

Airport or City:

Trip Planner

Search our weather history database for the weather conditions in past years. The results will help you decide how hot, cold, wet, or windy it might be!

Date:

Astronomy

Mar. 02, 2013 Rise Set
Actual Time 6:35 AM PST 5:59 PM PST
Civil Twilight 6:09 AM PST 6:26 PM PST
Nautical Twilight 5:38 AM PST 6:57 PM PST
Astronomical Twilight 5:07 AM PST 7:28 PM PST
Moon 11:41 PM PST (3/2) 9:11 AM PST (3/2)
Length of Visible Light 12h 17m
Length of Day
11h 24m
Waning Gibbous, 73% of the Moon is Illuminated
Mar 2
Waning Gibbous
Mar 4
Last Quarter
Mar 11
New
Mar 19
First Quarter
Mar 27
Full

Hourly Weather History & Observations

Time (PST) Temp. Windchill Dew Point Humidity Pressure Visibility Wind Dir Wind Speed Gust Speed Precip Events Conditions
12:10 AM 51.8 °F - 44.6 °F 76% 30.27 in 10.0 mi Calm Calm - N/A   Clear
12:30 AM 50.0 °F - 44.6 °F 82% 30.27 in 10.0 mi Calm Calm - N/A   Clear
12:50 AM 50.0 °F - 44.6 °F 82% 30.27 in 10.0 mi Calm Calm - N/A   Clear
1:10 AM 50.0 °F - 42.8 °F 76% 30.27 in 10.0 mi ENE 3.5 mph - N/A   Clear
1:30 AM 53.6 °F - 44.6 °F 72% 30.27 in 10.0 mi Calm Calm - N/A   Clear
1:50 AM 51.8 °F - 44.6 °F 76% 30.26 in 10.0 mi Calm Calm - N/A   Clear
2:10 AM 53.6 °F - 44.6 °F 72% 30.25 in 10.0 mi East 3.5 mph - N/A   Clear
2:30 AM 53.6 °F - 44.6 °F 72% 30.25 in 10.0 mi Calm Calm - N/A   Clear
2:50 AM 53.6 °F - 44.6 °F 72% 30.24 in 10.0 mi Calm Calm - N/A   Clear
3:10 AM 53.6 °F - 44.6 °F 72% 30.23 in 10.0 mi East 3.5 mph - N/A   Clear
3:30 AM 51.8 °F - 44.6 °F 76% 30.23 in 10.0 mi Calm Calm - N/A   Clear
3:50 AM 50.0 °F - 44.6 °F 82% 30.23 in 10.0 mi Calm Calm - N/A   Clear
4:10 AM 50.0 °F - 44.6 °F 82% 30.23 in 10.0 mi West 4.6 mph - N/A   Clear
4:30 AM 48.2 °F - 44.6 °F 87% 30.23 in 10.0 mi Calm Calm - N/A   Clear
4:50 AM 48.2 °F - 44.6 °F 87% 30.22 in 10.0 mi Calm Calm - N/A   Clear
5:10 AM 48.2 °F - 44.6 °F 87% 30.22 in 10.0 mi Calm Calm - N/A   Clear
5:30 AM 48.2 °F - 44.6 °F 87% 30.22 in 10.0 mi Calm Calm - N/A   Clear
5:50 AM 46.4 °F 44.3 °F 44.6 °F 93% 30.23 in 10.0 mi West 4.6 mph - N/A   Clear
6:10 AM 46.4 °F - 42.8 °F 87% 30.23 in 10.0 mi Calm Calm - N/A   Clear
6:30 AM 46.4 °F - 44.6 °F 93% 30.23 in 10.0 mi Calm Calm - N/A   Clear
6:50 AM 46.4 °F - 42.8 °F 87% 30.23 in 10.0 mi Calm Calm - N/A   Clear
7:10 AM 46.4 °F 45.2 °F 44.6 °F 93% 30.24 in 9.0 mi NW 3.5 mph - N/A   Clear
7:30 AM 48.2 °F - 44.6 °F 87% 30.24 in 9.0 mi NNE 3.5 mph - N/A   Clear
7:50 AM 50.0 °F - 46.4 °F 87% 30.24 in 9.0 mi North 5.8 mph - N/A   Clear
8:10 AM 50.0 °F - 46.4 °F 87% 30.25 in 10.0 mi North 3.5 mph - N/A   Clear
8:30 AM 53.6 °F - 48.2 °F 82% 30.25 in 9.0 mi NNE 3.5 mph - N/A   Clear
8:50 AM 55.4 °F - 46.4 °F 72% 30.25 in 10.0 mi NNE 3.5 mph - N/A   Clear
9:10 AM 57.2 °F - 46.4 °F 67% 30.25 in 10.0 mi Calm Calm - N/A   Clear
9:30 AM 59.0 °F - 46.4 °F 63% 30.24 in 9.0 mi NNE 3.5 mph - N/A   Clear
9:50 AM 60.8 °F - 46.4 °F 59% 30.23 in 10.0 mi Calm Calm - N/A   Clear
10:10 AM 62.6 °F - 46.4 °F 55% 30.23 in 10.0 mi Calm Calm - N/A   Clear
10:30 AM 62.6 °F - 46.4 °F 55% 30.22 in 9.0 mi Calm Calm - N/A   Clear
10:50 AM 64.4 °F - 46.4 °F 52% 30.22 in 10.0 mi Calm Calm - N/A   Clear
11:10 AM 64.4 °F - 46.4 °F 52% 30.22 in 10.0 mi Calm Calm - N/A   Clear
11:30 AM 64.4 °F - 46.4 °F 52% 30.21 in 10.0 mi WNW 3.5 mph - N/A   Clear
11:50 AM 64.4 °F - 46.4 °F 52% 30.20 in 10.0 mi NNE 3.5 mph - N/A   Clear
12:10 PM 66.2 °F - 48.2 °F 52% 30.19 in 10.0 mi West 4.6 mph - N/A   Partly Cloudy
12:30 PM 66.2 °F - 46.4 °F 49% 30.18 in 10.0 mi Calm Calm - N/A   Clear
12:50 PM 68.0 °F - 46.4 °F 46% 30.17 in 10.0 mi Calm Calm - N/A   Clear
1:10 PM 68.0 °F - 46.4 °F 46% 30.16 in 9.0 mi Calm Calm - N/A   Clear
1:30 PM 68.0 °F - 46.4 °F 46% 30.14 in 9.0 mi Calm Calm - N/A   Clear
1:50 PM 68.0 °F - 46.4 °F 46% 30.13 in 8.0 mi East 3.5 mph - N/A   Clear
2:10 PM 68.0 °F - 46.4 °F 46% 30.13 in 10.0 mi Calm Calm - N/A   Clear
2:30 PM 69.8 °F - 46.4 °F 43% 30.12 in 9.0 mi ESE 4.6 mph - N/A   Clear
2:50 PM 69.8 °F - 44.6 °F 40% 30.12 in 9.0 mi SSE 3.5 mph - N/A   Clear
3:10 PM 69.8 °F - 46.4 °F 43% 30.11 in 9.0 mi South 3.5 mph - N/A Rain Light Rain
3:30 PM 69.8 °F - 44.6 °F 40% 30.10 in 9.0 mi SE 3.5 mph - N/A   Clear
3:50 PM 69.8 °F - 44.6 °F 40% 30.09 in 9.0 mi East 3.5 mph - N/A Rain Light Rain
4:10 PM 68.0 °F - 44.6 °F 43% 30.09 in 9.0 mi Calm Calm - N/A Rain Light Rain
4:30 PM 68.0 °F - 50.0 °F 52% 30.09 in 9.0 mi Calm Calm - N/A   Clear
4:50 PM 66.2 °F - 51.8 °F 60% 30.09 in 8.0 mi NNW 6.9 mph - N/A   Clear
5:10 PM 64.4 °F - 51.8 °F 64% 30.08 in 8.0 mi NNW 4.6 mph - N/A   Clear
5:30 PM 64.4 °F - 51.8 °F 64% 30.08 in 9.0 mi NNW 4.6 mph - N/A   Clear
5:50 PM 62.6 °F - 51.8 °F 68% 30.08 in 9.0 mi North 5.8 mph - N/A   Clear
6:10 PM 62.6 °F - 51.8 °F 68% 30.08 in 10.0 mi Calm Calm - N/A   Clear
6:30 PM 62.6 °F - 50.0 °F 63% 30.08 in 10.0 mi NNW 3.5 mph - N/A   Clear
6:50 PM 60.8 °F - 50.0 °F 68% 30.09 in 10.0 mi NW 3.5 mph - N/A   Clear
7:10 PM 60.8 °F - 50.0 °F 68% 30.10 in 10.0 mi Calm Calm - N/A   Clear
7:30 PM 62.6 °F - 50.0 °F 63% 30.09 in 10.0 mi Calm Calm - N/A   Clear
7:50 PM 62.6 °F - 50.0 °F 63% 30.08 in 10.0 mi SE 3.5 mph - N/A   Clear
8:10 PM 62.6 °F - 50.0 °F 63% 30.08 in 10.0 mi SE 3.5 mph - N/A   Clear
8:30 PM 62.6 °F - 50.0 °F 63% 30.08 in 10.0 mi Calm Calm - N/A   Clear
8:50 PM 60.8 °F - 50.0 °F 68% 30.09 in 10.0 mi South 3.5 mph - N/A   Clear
9:10 PM 60.8 °F - 50.0 °F 68% 30.09 in 10.0 mi South 4.6 mph - N/A   Clear
9:30 PM 59.0 °F - 50.0 °F 72% 30.09 in 10.0 mi West 4.6 mph - N/A   Partly Cloudy
9:50 PM 59.0 °F - 50.0 °F 72% 30.09 in 10.0 mi South 3.5 mph - N/A   Partly Cloudy
10:10 PM 60.8 °F - 50.0 °F 68% 30.09 in 10.0 mi Calm Calm - N/A   Partly Cloudy
10:30 PM 59.0 °F - 50.0 °F 72% 30.10 in 10.0 mi SSE 5.8 mph - N/A   Clear
10:50 PM 59.0 °F - 50.0 °F 72% 30.08 in 10.0 mi Calm Calm - N/A   Mostly Cloudy
11:10 PM 59.0 °F - 50.0 °F 72% 30.08 in 10.0 mi Calm Calm - N/A   Scattered Clouds
11:30 PM 57.2 °F - 50.0 °F 77% 30.09 in 10.0 mi SE 9.2 mph - N/A   Clear
11:50 PM 59.0 °F - 50.0 °F 72% 30.10 in 8.0 mi South 9.2 mph - N/A   Clear